Regional Weather Roundup
Issued by NWS State College, PA

Home | Current Version | Previous Version | Text Only | Print | Product List | Glossary Off
Versions: 1 2 3 4 5 6 7 8 9 10 11 12 13 14 15 16 17 18 19 20 21 22 23 24 25 26 27 28 29 30 31 32 33 34 35 36 37 38 39 40 41 42 43 44 45 46 47 48 49 50

000
ASUS41 KCTP 251210
RWRCTP

REGIONAL WEATHER ROUNDUP
NATIONAL WEATHER SERVICE STATE COLLEGE PA
700 AM EST THU DEC 25 2014

Note: "fair" indicates few or no clouds below 12,000 feet with no
significant weather and/or obstructions to visibility.

* = STATION THAT DOES NOT REPORT PRECIPITATION /E.G. RAIN...SNOW...ETC/
    THUNDER OR FOG.

PAZ002>004-007>009-013>016-020>023-029>032-251300-
WESTERN PENNSYLVANIA

CITY           SKY/WX    TMP DP  RH WIND       PRES   REMARKS
ERIE           CLOUDY    40  31  70 W22G36    29.70R
MEADVILLE      CLOUDY    37  32  82 SW10G21   29.71R
FRANKLIN*      CLOUDY    36  30  80 SW12G20   29.74R
NEW CASTLE       N/A     37  35  92 SW7       29.79R
BEAVER COUNTY  NOT AVBL
BUTLER*        CLOUDY    37  32  81 W14G24    29.79R
PITTSBURGH INT CLOUDY    40  32  73 SW10G21   29.79R
PITTSBURGH     CLOUDY    39  30  70 SW15      29.79R
INDIANA*       CLOUDY    39  32  75 W12G21    29.79R
LATROBE        MOCLDY    39  36  87 W14G25    29.81R
WASHINGTON CO* NOT AVBL
$$

PAZ004>006-010>012-017>019-024>028-033>037-041-042-045-046-049>053-251300-
CENTRAL PENNSYLVANIA

CITY           SKY/WX    TMP DP  RH WIND       PRES   REMARKS
BRADFORD       LGT SNOW  34  30  85 W8G18     29.64R FOG
DUBOIS         CLOUDY    36  31  82 W20G29    29.69R
CLEARFIELD     CLOUDY    38  30  73 SW15      29.71R
JOHNSTOWN      CLOUDY    35  30  82 W16G28    29.72R
ALTOONA        MOCLDY    39  31  72 W17G26    29.73R
STATE COLLEGE  MOCLDY    39  32  75 W12G18    29.73R
WILLIAMSPORT   MOCLDY    43  31  62 W7        29.68R
SELINSGROVE    CLOUDY    44  32  62 W8        29.72R
FT INDIANTOWN  CLOUDY    46  37  71 W8        29.71R
CAPITAL CITY   CLOUDY    47  35  63 W13G20    29.73R
HARRISBURG     CLOUDY    45  36  70 W8        29.73R
YORK           CLOUDY    46  37  71 W10       29.73R
$$

PAZ038>040-043-044-047-048-054-055-060>062-067>071-251300-
EASTERN PENNSYLVANIA

CITY           SKY/WX    TMP DP  RH WIND       PRES   REMARKS
SCRANTON       CLOUDY    44  38  79 W9        29.63R
MOUNT POCONO   CLOUDY    40  35  83 W20G25    29.60R
ALLENTOWN      CLOUDY    45  38  76 W8        29.68R
QUAKERTOWN*    NOT AVBL
READING        CLOUDY    45  40  82 NW3       29.69R
LANCASTER      CLOUDY    45  40  82 W12       29.70R
COATESVILLE    CLOUDY    46  45  93 W14       29.70R
POTTSTOWN      CLOUDY    45  42  89 NW5       29.68S
BLUE BELL      CLOUDY    48  43  81 NW5       29.66R
DOYLESTOWN     CLOUDY    45  50 100 W7        29.66S
WILLOW GROVE   NOT AVBL
NORTH PHILA    CLOUDY    50  42  74 NW12      29.68R
PHILADELPHIA   CLOUDY    51  40  65 W13G22    29.70R
$$



USA.gov is the U.S. government's official web portal to all federal, state and local government web resources and services.